This demonstration page uses our WeatherBlox Daily Observations layout. Learn more.

Left ArrowRight Arrow

40.92945, -100.16068

Hourly Observations for February 1, 2015

Temp ( °F °C ) Dew Point ( °F °C ) Humidity (%) Winds ( mph kmh ) Pressure ( in mb ) Visibility ( mi km ) Precip ( " mm )
12:15 am 00:15 Windy with Snow Likely 23 -5 20 -6.6 89 89 N 24 39 30.06 1018 3 5 N/A
12:35 am 00:35 Windy with Snow Likely 23 -5.1 20 -6.7 89 89 N 22 35 30.06 1018 2 3 N/A
12:55 am 00:55 Windy with Snow Likely 22 -5.5 19 -7 89 89 N 25 41 30.06 1018 2 3 N/A
1:15 am 01:15 Windy with Snow Likely 22 -5.5 19 -7 89 89 N 24 39 30.06 1018 1 2 N/A
1:35 am 01:35 Windy with Snow Likely 22 -5.8 19 -7.3 89 89 N 25 41 30.09 1019 1 2 N/A
1:55 am 01:55 Windy with Snow Likely 21 -6 18 -7.6 89 89 N 24 39 30.09 1019 2 2 N/A
2:15 am 02:15 Windy with Snow Likely 21 -6.2 18 -7.8 89 89 N 23 37 30.09 1019 2 3 N/A
2:35 am 02:35 Windy with Snow Likely 20 -6.5 17 -8.3 87 87 N 30 48 30.12 1020 2 3 N/A
2:55 am 02:55 Windy with Snow Likely 19 -7.2 16 -9 87 87 N 25 41 30.15 1021 2 3 N/A
3:15 am 03:15 Windy with Snow Likely 19 -7.5 15 -9.3 87 87 NNW 24 39 30.15 1021 2 3 N/A
3:35 am 03:35 Windy with Snow Likely 18 -8 14 -10 86 86 N 26 43 30.21 1023 3 4 N/A
3:55 am 03:55 Cloudy with Mist and Fog 17 -8.2 13 -10.4 84 84 N 31 50 30.21 1023 4 6 N/A
4:15 am 04:15 Windy with Snow Likely 16 -9 12 -11.1 85 85 NNW 24 39 30.24 1024 3 4 N/A
4:35 am 04:35 Windy with Snow Likely 16 -9 12 -11.3 84 84 NNW 22 35 30.24 1024 5 8 N/A
4:55 am 04:55 Windy with Snow Likely 15 -9.5 11 -11.7 84 84 NNW 26 43 30.24 1024 3 4 N/A
5:15 am 05:15 Windy with Snow Likely 14 -10.1 10 -12.3 84 84 N 30 48 30.24 1024 2 3 N/A
5:35 am 05:35 Windy with Snow Likely 14 -10 10 -12.2 84 84 NNW 29 46 30.24 1024 4 6 N/A
5:55 am 05:55 Cloudy with Haze 13 -10.6 9 -13 83 83 NNW 26 43 30.27 1025 3 5 N/A
6:15 am 06:15 Windy with Snow Likely 13 -10.6 8 -13.1 82 82 N 25 41 30.30 1026 3 5 N/A
6:35 am 06:35 Windy with Snow Likely 13 -10.8 8 -13.2 83 83 NNW 25 41 30.30 1026 2 3 N/A
6:55 am 06:55 Windy with Snow Likely 12 -11 8 -13.2 84 84 NNW 23 37 30.33 1027 2 3 N/A
7:15 am 07:15 Windy with Snow Likely 12 -11.2 8 -13.5 83 83 NNW 25 41 30.33 1027 3 5 N/A
7:35 am 07:35 Cloudy with Mist and Fog 11 -11.5 7 -14 82 82 N 24 39 30.33 1027 3 4 N/A
7:55 am 07:55 Cloudy with Haze 11 -11.6 7 -14.1 82 82 NNW 22 35 30.33 1027 3 5 N/A
8:15 am 08:15 Cloudy with Haze 11 -11.7 6 -14.5 80 80 NNW 23 37 30.36 1028 3 4 N/A
8:35 am 08:35 Cloudy with Haze 11 -11.7 6 -14.5 80 80 NNW 22 35 30.39 1029 5 8 N/A
8:55 am 08:55 Cloudy with Haze 10 -12 5 -14.9 79 79 NNW 22 35 30.39 1029 4 6 N/A
9:15 am 09:15 Cloudy with Haze 10 -12 5 -15 79 79 NNW 24 39 30.39 1029 3 4 N/A
9:35 am 09:35 Cloudy with Haze 10 -12.1 5 -15.2 78 78 NNW 25 41 30.45 1031 3 5 N/A
9:55 am 09:55 Cloudy with Haze 10 -12.5 4 -15.7 77 77 NNW 25 41 30.45 1031 2 3 N/A
10:15 am 10:15 Cloudy with Haze 10 -12.5 4 -15.6 78 78 NNW 23 37 30.45 1031 3 4 N/A
10:35 am 10:35 Cloudy with Haze 10 -12.2 4 -15.3 78 78 NNW 24 39 30.45 1031 2 3 N/A
10:55 am 10:55 Cloudy with Haze 10 -12 5 -15.1 78 78 NNW 29 46 30.48 1032 2 3 N/A
11:15 am 11:15 Cloudy with Haze 10 -12 5 -15.2 77 77 NNW 32 52 30.48 1032 1 2 N/A
11:35 am 11:35 Windy with Snow Likely 10 -12 5 -15.1 78 78 NNW 28 44 30.48 1032 2 2 N/A
11:55 am 11:55 Cloudy with Haze 11 -11.5 6 -14.6 78 78 NNW 29 46 30.45 1031 3 4 N/A
12:15 pm 12:15 Cloudy with Haze 11 -11.5 6 -14.6 78 78 NNW 31 50 30.45 1031 2 2 N/A
12:35 pm 12:35 Cloudy with Haze 11 -11.6 5 -15 76 76 NNW 31 50 30.48 1032 3 4 N/A
12:55 pm 12:55 Windy with Snow Likely 11 -11.6 5 -15.2 75 75 NNW 30 48 30.48 1032 2 3 N/A
1:15 pm 13:15 Cloudy with Haze 12 -11.2 6 -14.6 76 76 NNW 24 39 30.45 1031 3 5 N/A
1:35 pm 13:35 Cloudy with Haze 12 -11 5 -14.8 74 74 NNW 23 37 30.45 1031 4 6 N/A
1:55 pm 13:55 Cloudy 12 -11.1 6 -14.7 75 75 NNW 24 39 30.45 1031 7 11 N/A
2:15 pm 14:15 Cloudy with Haze 12 -11.3 5 -15 74 74 NNW 28 44 30.45 1031 3 5 N/A
2:35 pm 14:35 Cloudy with Haze 11 -11.5 5 -15 76 76 NNW 29 46 30.45 1031 2 2 N/A
2:55 pm 14:55 Cloudy with Haze 12 -11.3 5 -15.1 74 74 NNW 23 37 30.45 1031 5 8 N/A
3:15 pm 15:15 Cloudy with Haze 12 -11.3 5 -15.1 74 74 NNW 25 41 30.48 1032 5 8 N/A
3:35 pm 15:35 Cloudy with Haze 11 -11.6 4 -15.7 72 72 NNW 28 44 30.50 1033 3 5 N/A
3:55 pm 15:55 Cloudy 11 -11.5 4 -15.8 71 71 NNW 28 44 30.48 1032 10 16 N/A
4:15 pm 16:15 Cloudy 11 -11.9 3 -16.3 70 70 N 25 41 30.50 1033 7 11 N/A
4:35 pm 16:35 Cloudy 10 -12 2 -16.5 69 69 N 24 39 30.53 1034 10 16 N/A
4:55 pm 16:55 Cloudy 10 -12 2 -16.5 69 69 NNW 24 39 30.53 1034 10 16 N/A
5:15 pm 17:15 Cloudy 10 -12.1 2 -16.5 70 70 NNW 29 46 30.53 1034 10 16 N/A
5:35 pm 17:35 Cloudy 10 -12.3 2 -16.6 71 71 NNW 15 24 30.53 1034 10 16 N/A
5:55 pm 17:55 Cloudy with Light Snow 33 0.5 32 undefined 96 96 NE 5 7 29.91 1013 1 2 0.03 0.76
6:15 pm 18:15 Mostly Cloudy 9 -12.9 1 -17.2 70 70 NW 10 17 30.53 1034 10 16 N/A
6:35 pm 18:35 Clear 8 -13.6 1 -17.5 73 73 NW 12 19 30.56 1035 10 16 N/A
6:55 pm 18:55 Clear 7 -14.1 N/A 74 74 NW 13 20 30.56 1035 10 16 N/A
7:15 pm 19:15 Clear 6 -14.3 N/A 74 74 NW 12 19 30.59 1036 10 16 N/A
7:35 pm 19:35 Clear 6 -14.6 -1 -18.2 74 74 NW 12 19 30.59 1036 10 16 N/A
7:55 pm 19:55 Clear 6 -14.5 N/A 75 75 NW 13 20 30.59 1036 10 16 N/A
8:15 pm 20:15 Clear 6 -14.7 -1 -18.2 75 75 NW 10 17 30.59 1036 10 16 N/A
8:35 pm 20:35 Clear 5 -15 -1 -18.4 76 76 NW 10 17 30.59 1036 10 16 N/A
8:55 pm 20:55 Clear 4 -15.4 -1 -18.5 77 77 WNW 8 13 30.59 1036 10 16 N/A
9:15 pm 21:15 Clear 3 -15.9 -2 -18.9 78 78 NW 8 13 30.56 1035 10 16 N/A
9:35 pm 21:35 Clear 3 -16.3 -2 -19.1 79 79 NW 9 15 30.56 1035 10 16 N/A
9:55 pm 21:55 Clear 3 -15.9 -2 -18.7 79 79 NW 9 15 30.56 1035 10 16 N/A
10:15 pm 22:15 Clear 2 -16.5 -3 -19.2 80 80 WNW 10 17 30.56 1035 10 16 N/A
10:35 pm 22:35 Clear 4 -15.8 -2 -18.7 79 79 NW 7 11 30.56 1035 10 16 N/A
10:55 pm 22:55 Clear 2 -16.6 -3 -19.5 78 78 NW 6 9 30.59 1036 10 16 N/A
11:15 pm 23:15 Clear 1 -17.3 -4 -20 80 80 W 5 7 30.59 1036 10 16 N/A
11:35 pm 23:35 Clear 1 -17.5 -4 -20 81 81 NW 5 7 30.56 1035 10 16 N/A
11:55 pm 23:55 Clear -1 -18.2 -5 -20.7 81 81 N N/A 30.56 1035 10 16 N/A

Powered by AerisWeather